Temp
24 24 24 24 23 23 23 22 22 22 22 22 22 22 22 21 21 21 21 21 21 21 21 21 20 20 20 20 20 20 20 20 20 20 20 20 20 20 20 20 19 19
24 24 24 24 23 23 23 22 22 22 22 22 22 21 21 21 21 21 21 21 21 21 21 21 20 20 20 21 21 21 21 21 21 21 20 20 20 20 20 20 20 19
24 24 24 24 23 23 23 22 22 22 22 22 21 21 21 21 21 21 21 21 21 21 21 21 21 21 21 21 21 21 21 21 21 21 20 21 20 20 20 20 20 19
24 24 24 23 23 23 22 22 22 22 22 21 21 21 21 21 21 21 21 21 21 21 21 21 21 21 21 21 21 21 21 21 21 20 20 20 20 20 20 20 20 19
24 24 24 23 23 23 22 22 22 22 22 22 21 21 21 21 21 21 21 21 21 21 21 21 21 21 21 21 21 21 21 21 21 20 20 20 19 19 20 20 20 20
24 24 24 23 23 23 22 22 22 22 22 22 21 21 21 21 21 21 21 21 21 21 21 21 20 20 21 21 21 21 21 21 21 21 20 20 20 20 20 20 20 19
24 24 24 23 23 23 22 22 22 22 22 22 22 21 21 21 21 21 21 21 21 21 21 21 21 21 21 21 21 21 21 21 21 21 20 20 20 20 20 20 19 19
24 24 24 23 23 23 22 22 22 22 22 22 21 21 21 21 21 21 21 21 21 21 21 21 21 21 21 21 21 21 21 21 21 20 20 20 20 20 20 19 19 19
24 24 23 23 23 23 22 22 22 22 22 22 22 21 21 21 21 21 21 21 21 21 21 21 21 21 21 21 21 21 21 21 21 20 20 20 20 20 20 20 19 19
24 24 23 23 23 23 23 22 22 22 22 22 22 22 22 21 21 21 21 21 21 21 21 21 21 21 21 21 21 21 21 21 21 20 20 20 20 20 20 20 19 19
24 24 23 23 23 23 23 23 22 23 22 22 22 22 22 22 21 21 21 21 21 21 21 21 21 21 21 21 21 21 21 21 21 20 20 20 20 20 20 20 19 19
24 24 23 23 23 23 23 23 23 22 22 22 22 22 22 22 22 22 22 21 21 21 21 21 21 21 21 21 21 21 21 21 21 20 20 20 20 20 20 20 19 19
23 23 23 24 23 23 23 23 23 22 22 22 22 22 22 22 22 22 22 21 21 21 21 21 21 21 21 21 21 21 21 21 21 20 20 20 20 20 20 20 20 20
23 23 24 24 24 23 23 23 23 23 22 22 22 22 22 22 22 22 22 22 21 21 21 21 21 22 21 21 21 21 21 21 21 20 21 21 20 20 20 20 20 20
23 23 24 24 24 23 23 23 23 23 23 22 22 22 22 22 22 22 22 22 21 21 21 21 22 22 22 22 21 21 21 21 21 20 20 20 20 20 20 20 20 20
23 23 24 24 24 23 23 23 23 23 23 23 23 23 22 22 22 22 22 22 22 22 22 22 22 22 22 22 21 21 21 20 20 20 20 20 20 20 20 20 20 19
23 22 23 24 24 24 24 23 23 23 23 23 23 23 22 22 22 22 22 22 22 22 22 22 22 22 22 22 21 21 20 20 20 20 20 20 20 20 20 20 19 19
23 22 23 24 24 24 24 24 23 23 23 23 23 23 23 23 22 22 22 22 22 22 22 22 22 22 22 22 21 21 20 20 20 20 20 20 20 20 19 19 19 19
22 21 23 24 24 24 24 24 23 23 23 23 23 23 23 23 23 22 22 22 22 22 22 22 22 22 22 21 21 20 20 20 20 20 20 20 20 19 19 19 19 19
22 21 22 24 24 24 24 24 23 23 24 23 23 23 23 23 23 23 23 23 23 22 22 22 22 22 22 21 21 20 20 20 20 19 19 19 19 19 19 19 18 18
20 21 23 24 24 24 24 24 24 24 24 24 24 23 23 23 23 23 23 23 22 21 21 21 22 22 21 21 20 20 20 20 19 19 19 19 19 19 19 18 18 17
20 22 23 23 23 24 24 24 24 24 24 24 24 23 23 24 23 23 23 22 21 20 19 20 21 21 21 20 20 20 19 19 19 19 19 19 18 18 18 18 18 17
21 22 23 23 23 23 23 24 24 24 24 24 24 24 24 23 22 22 22 21 21 21 20 20 21 21 21 20 20 19 19 18 18 18 18 18 18 17 18 18 18 17
22 23 23 22 23 23 24 24 24 25 25 24 24 24 23 22 21 21 21 22 21 21 20 20 21 21 21 20 20 19 19 18 18 18 18 18 17 17 17 17 18 17
23 24 22 22 23 24 24 25 25 25 25 24 23 22 22 21 21 21 22 22 21 20 20 21 21 21 21 20 20 19 19 18 18 18 18 17 17 17 17 17 17 17
24 24 22 22 23 25 25 25 25 25 24 22 22 22 22 21 21 21 21 21 20 20 20 20 21 21 20 19 19 19 18 18 18 17 17 17 17 17 17 17 16 16
Height
811 812 814 815 816 817 818 820 820 821 822 822 822 823 823 824 824 825 826 826 826 826 825 825 824 824 824 824 824 824 824 824 824 823 823 823 823 822 822 822 822 822
809 810 811 813 814 815 816 817 819 819 820 820 821 821 822 822 823 824 824 825 825 825 825 824 824 824 824 824 824 823 823 823 823 823 822 822 822 821 821 821 820 820
806 808 809 810 811 813 814 815 817 818 818 819 819 820 820 821 822 822 823 824 824 824 824 823 823 823 823 823 823 822 822 822 822 821 821 821 820 820 820 819 819 818
804 805 806 808 810 811 812 813 815 816 817 818 818 819 819 820 821 821 822 823 823 823 823 823 822 822 822 822 821 821 821 820 821 820 820 819 819 819 818 818 817 816
801 803 804 806 808 809 811 812 813 815 816 817 818 818 819 819 820 820 821 821 822 822 822 822 822 821 821 820 820 820 819 819 819 819 819 818 818 817 817 816 815 815
800 801 803 804 806 808 809 810 811 813 814 816 817 818 818 819 819 820 820 820 820 821 821 821 820 820 819 819 819 818 818 818 818 818 817 816 816 815 815 814 813 813
799 800 802 803 805 806 808 808 809 810 812 814 815 816 817 818 818 819 818 819 819 819 819 819 819 818 818 818 817 817 817 816 816 815 815 815 814 813 812 812 812 811
797 799 800 802 803 805 806 806 807 808 809 812 813 814 816 816 817 817 817 817 817 817 818 818 818 817 817 816 816 815 815 815 814 814 813 812 812 811 810 810 809 808
795 797 798 799 801 803 805 805 804 805 807 809 810 812 813 814 815 816 816 816 816 816 816 816 816 816 815 815 814 814 813 813 812 812 811 810 809 809 808 808 807 807
793 795 797 797 799 801 803 804 803 803 805 806 808 809 811 812 813 813 814 813 813 814 814 814 814 814 814 813 812 812 811 810 810 809 809 808 808 807 806 806 805 805
791 794 795 795 796 799 802 802 802 802 803 804 805 807 808 809 810 811 811 811 811 812 812 812 812 812 812 811 810 809 809 808 807 807 806 806 806 805 804 804 803 802
787 790 792 792 793 796 799 800 800 800 801 802 803 804 806 807 808 808 808 809 809 810 810 810 810 810 809 809 808 807 806 806 805 804 804 804 803 803 802 802 801 800
785 788 789 789 790 794 796 797 797 798 799 800 801 802 803 804 805 806 806 807 808 808 808 808 808 808 808 807 807 806 805 804 803 802 802 801 801 801 800 800 799 798
787 791 790 787 788 791 793 794 794 795 797 798 799 800 801 802 803 804 805 806 807 807 806 806 806 806 806 806 805 804 803 802 801 800 799 799 798 798 798 797 796 796
782 786 786 786 787 788 790 791 791 793 795 796 797 798 799 800 801 802 803 804 805 805 804 804 804 804 804 804 803 803 802 801 800 799 797 797 796 795 795 795 794 793
775 779 781 782 784 786 787 787 788 791 793 794 795 796 797 798 799 800 801 802 802 802 802 802 802 802 801 801 801 801 800 799 798 797 796 795 794 793 793 792 792 791
772 778 779 779 780 782 783 784 786 788 790 792 792 794 795 796 797 797 798 799 799 799 799 799 799 799 799 799 799 799 798 797 796 795 794 793 792 791 790 789 789 788
775 777 776 775 777 778 780 782 784 786 788 789 790 791 792 793 794 794 795 795 795 795 795 795 795 795 796 796 796 796 796 795 794 793 792 791 790 789 788 787 786 785
777 776 774 774 774 775 777 779 781 783 785 786 787 788 790 790 791 791 792 792 793 792 792 792 792 793 793 794 793 793 793 792 791 791 790 789 788 786 785 784 783 783
772 773 773 773 773 773 775 776 778 780 781 783 784 786 786 787 788 788 789 789 789 789 789 789 790 790 790 791 790 790 790 789 789 789 788 787 785 784 783 782 781 780
769 771 773 772 771 772 773 773 775 776 778 780 781 782 782 783 784 785 785 786 787 788 790 789 788 788 788 788 788 788 787 787 787 786 786 784 783 782 781 780 779 779
767 769 770 770 770 770 770 770 771 772 774 775 777 778 778 779 780 782 783 783 785 788 789 788 786 785 785 785 785 785 785 785 784 784 783 782 781 780 779 778 778 777
767 765 764 766 767 767 767 767 768 768 769 771 773 774 775 777 778 779 780 781 781 783 784 783 783 783 783 783 783 783 783 782 783 782 781 780 778 777 776 776 776 775
763 759 760 762 763 763 763 763 764 765 766 768 770 771 773 774 775 776 778 778 777 779 780 781 781 780 780 780 780 780 780 780 781 780 779 778 776 775 774 774 774 773
758 755 756 759 759 759 759 760 761 762 764 766 768 769 770 772 773 775 777 776 776 778 780 780 779 778 778 778 778 778 778 778 778 777 776 775 774 773 772 771 771 771
755 752 753 755 755 755 756 757 759 760 762 764 766 767 769 770 771 773 774 774 774 775 777 777 777 776 776 776 776 776 776 776 776 775 774 773 772 771 770 770 770 769
Wind_Speed
18 18 17 15 13 12 11 11 11 11 11 10 9 9 8 7 6 7 7 6 6 6 6 6 6 6 7 7 8 9 10 10 10 9 9 9 8 7 6 5 5 6
20 19 18 15 13 13 12 12 11 11 11 10 9 9 9 9 9 8 7 7 8 7 7 7 7 7 8 8 9 10 11 12 12 11 10 10 9 9 8 7 7 8
22 21 19 16 15 14 13 12 11 11 10 10 10 10 9 9 8 8 8 8 8 9 8 8 8 8 9 9 10 11 12 13 13 12 12 12 11 11 11 10 9 10
24 22 20 17 16 15 14 13 12 11 11 10 10 10 9 9 8 9 9 9 9 10 9 9 9 9 10 10 11 12 14 14 14 13 13 13 13 12 13 12 12 12
26 23 20 18 16 15 15 15 13 13 12 10 10 10 10 10 10 10 10 10 10 10 10 10 10 10 10 10 11 13 15 15 15 14 14 14 13 13 14 15 14 15
27 24 21 19 17 15 16 16 15 15 13 11 11 11 11 12 11 11 11 11 11 11 11 10 10 10 10 10 11 13 14 15 16 15 15 16 15 15 16 17 17 17
28 25 22 20 18 16 17 17 16 15 12 12 13 13 13 13 13 14 13 13 12 11 10 10 11 11 11 11 11 12 13 14 16 16 16 16 16 15 17 19 20 19
29 26 23 21 19 18 18 17 16 14 13 13 15 15 15 15 15 15 14 13 11 10 10 10 12 13 12 12 12 13 14 15 17 17 16 15 15 15 16 18 19 19
30 27 25 22 20 19 19 18 16 14 14 15 17 18 18 17 16 15 13 13 12 12 11 12 13 13 13 14 15 16 17 17 16 17 17 18 18 18 17 17 18 19
30 27 26 24 22 21 20 19 16 14 14 16 18 19 19 18 17 16 15 14 13 12 12 12 13 14 14 15 15 15 15 14 15 16 18 19 18 18 17 16 18 19
31 28 28 27 24 22 21 19 17 15 16 17 19 19 19 19 18 17 16 15 14 12 12 13 14 14 14 14 13 13 13 14 15 16 17 17 15 15 15 16 18 20
32 30 31 28 25 23 22 20 18 17 18 20 20 20 19 18 17 17 18 18 15 13 13 14 13 12 13 13 13 14 15 16 15 15 15 14 14 13 14 16 17 18
33 32 32 29 25 25 24 22 19 19 20 21 20 19 17 17 17 17 17 16 15 13 14 14 13 12 13 13 14 15 16 16 15 14 14 14 14 13 13 14 14 15
30 30 32 28 26 26 25 22 21 20 22 23 21 18 17 16 16 15 14 13 13 14 15 14 13 13 14 13 14 15 15 16 15 15 15 14 14 14 13 13 14 14
31 33 33 28 27 28 26 23 21 21 22 23 21 19 18 18 17 16 15 15 15 15 15 14 14 14 14 13 13 14 14 15 15 16 15 15 15 16 16 16 15 15
35 35 34 31 30 29 26 23 22 22 23 23 22 21 20 20 19 18 17 18 17 16 16 16 15 15 14 13 13 13 14 15 15 15 16 17 17 18 19 19 17 17
36 34 36 36 33 31 28 24 23 24 25 24 23 23 22 20 19 19 19 19 19 19 17 16 16 16 15 13 13 14 15 15 15 15 15 16 16 18 20 20 19 19
31 34 38 38 35 32 28 25 25 26 27 25 25 24 23 21 20 20 20 20 21 21 19 18 18 18 16 15 15 14 14 14 15 15 15 15 15 17 19 20 20 19
28 36 38 37 36 32 28 27 28 28 28 27 25 24 23 21 21 22 23 23 22 22 21 19 19 19 17 16 16 13 13 15 16 16 16 16 16 17 18 18 17 17
31 36 37 36 35 33 30 30 31 30 28 26 25 25 24 23 23 24 25 25 25 24 24 21 20 20 18 17 16 14 14 17 18 17 17 17 16 16 16 15 15 15
30 32 33 35 35 33 33 33 34 32 30 27 27 26 25 25 25 25 26 26 23 21 22 22 22 20 19 17 16 15 15 16 16 16 16 16 16 15 14 13 14 15
26 31 34 36 34 34 35 35 35 34 31 29 28 28 27 27 26 25 25 22 17 17 22 24 22 20 17 16 14 13 14 14 14 14 16 16 16 13 11 10 12 13
27 33 36 36 34 34 36 36 36 34 31 30 29 30 30 26 21 19 19 17 15 18 22 23 20 17 15 15 14 13 13 12 12 13 15 15 14 11 9 10 12 14
32 34 35 35 35 36 37 38 37 33 31 30 30 30 25 18 13 13 13 14 15 15 17 18 16 15 16 16 16 15 14 12 12 13 13 13 12 11 11 12 14 16
34 33 32 33 36 38 38 38 36 33 32 29 26 24 20 15 12 11 13 17 17 13 14 17 16 16 16 15 15 15 14 12 12 11 11 11 12 12 14 15 15 14
37 34 33 35 37 38 38 37 35 33 29 22 19 18 15 11 8 8 11 16 18 15 17 19 17 14 13 13 14 15 14 13 11 10 9 10 12 14 16 16 14 11
Wind_Direction
204 203 201 202 206 211 212 210 211 212 214 216 214 213 215 218 228 243 250 245 243 260 281 288 291 300 309 315 316 314 311 306 301 302 302 301 303 294 277 288 307 300
205 203 204 210 212 212 213 213 215 219 222 222 221 223 227 233 240 240 236 237 246 262 276 281 287 296 304 309 310 309 305 299 292 288 286 286 286 278 269 273 281 280
205 205 207 212 210 209 211 212 219 225 224 224 226 227 227 229 232 230 232 242 253 267 277 281 287 295 302 306 308 308 305 301 294 288 286 282 274 268 264 264 267 267
205 208 210 211 212 214 213 214 221 222 221 228 227 222 220 224 229 232 241 253 260 269 275 280 289 296 300 303 305 307 308 309 307 301 293 281 270 269 266 259 259 260
205 208 210 210 212 213 212 212 214 212 218 228 224 223 226 228 236 244 249 256 260 269 277 283 290 294 297 299 301 304 305 308 311 307 298 285 275 274 268 258 254 254
205 208 210 210 208 208 209 210 211 210 221 234 234 236 236 234 244 250 251 257 265 274 279 283 288 291 296 297 297 301 301 302 303 298 294 292 285 275 263 256 254 252
206 208 208 208 208 210 211 210 210 213 226 241 241 241 241 242 250 254 257 264 270 277 281 285 290 293 299 300 297 296 295 297 297 291 291 294 291 279 259 253 253 249
206 207 206 206 209 212 212 210 210 218 231 237 237 240 245 250 256 257 260 264 266 274 282 289 295 296 298 299 296 294 291 291 292 289 290 289 285 279 266 259 254 250
206 205 204 205 207 211 213 213 216 224 231 234 237 242 246 251 255 255 257 261 264 271 277 284 291 292 294 296 295 295 293 291 289 287 286 285 282 278 274 273 266 261
204 205 205 204 206 211 216 219 220 221 226 233 240 244 249 254 255 254 255 260 265 271 276 281 285 288 294 297 296 297 294 291 290 288 288 288 287 281 275 276 274 272
200 204 207 205 206 212 219 222 220 219 226 235 241 246 253 257 256 254 254 255 258 265 273 279 285 289 294 294 294 296 297 295 294 292 291 293 293 288 280 277 278 278
198 203 206 205 207 213 219 221 218 221 229 237 242 247 251 251 250 250 249 250 253 260 270 279 283 284 285 285 289 294 297 298 297 292 289 290 290 288 284 281 281 282
196 201 204 204 208 214 218 221 220 223 230 237 241 241 240 240 241 241 243 250 256 264 274 277 276 279 282 284 288 292 295 295 293 287 283 284 283 281 279 279 281 283
191 203 208 206 209 214 217 221 222 226 233 237 236 233 235 238 237 239 246 255 261 267 271 269 270 280 286 288 289 290 290 289 284 277 276 279 279 278 278 278 280 285
190 205 210 208 211 213 215 218 221 227 232 232 231 234 241 242 242 249 257 260 260 264 266 265 270 279 282 285 289 287 285 284 280 273 271 275 277 279 282 282 283 289
195 204 207 207 210 212 213 214 217 224 228 228 231 239 243 243 247 254 257 257 259 261 264 264 266 274 281 286 287 285 284 283 279 275 273 276 281 284 285 285 286 291
194 204 207 206 207 211 213 212 215 222 226 229 235 240 241 243 249 252 251 254 257 257 259 261 262 266 274 280 280 282 285 283 278 277 277 280 287 291 290 290 290 292
194 208 208 205 207 210 210 212 217 222 225 229 234 237 240 244 249 251 251 253 254 253 254 255 257 260 263 269 275 279 284 284 281 279 280 287 296 298 297 296 296 296
205 215 210 205 208 210 210 214 217 220 224 228 233 237 240 244 248 251 252 254 253 251 251 253 256 256 258 267 272 273 279 286 285 280 281 291 303 306 305 304 303 300
212 216 210 209 212 210 211 215 217 219 223 227 233 237 239 242 246 248 251 255 254 250 249 252 254 252 255 264 266 266 277 286 282 276 279 293 306 311 312 313 313 307
214 213 210 213 214 211 212 215 218 220 223 227 232 235 237 241 244 247 251 254 256 259 259 257 254 250 254 262 263 266 278 282 275 271 279 294 305 312 315 319 322 317
217 211 213 217 215 212 213 216 219 220 223 227 229 232 238 242 243 248 253 255 263 277 274 262 252 249 255 259 260 266 274 272 266 270 280 292 303 312 316 318 320 319
222 209 213 219 216 212 213 216 219 222 225 228 229 233 237 239 243 249 253 258 274 281 267 252 244 248 253 251 251 257 260 256 260 272 283 292 300 308 310 313 317 315
221 213 216 220 215 212 214 216 219 223 229 231 231 233 235 233 236 244 250 263 280 280 257 242 243 253 254 249 250 252 248 248 262 273 279 286 293 301 309 316 319 316
218 222 223 220 215 213 214 217 222 228 233 232 229 230 233 231 235 255 274 274 272 268 253 248 253 257 254 251 249 244 240 247 260 264 267 278 291 303 313 320 321 319
219 229 229 223 218 217 218 222 226 230 230 227 224 229 235 236 245 280 283 260 249 248 247 247 250 249 245 242 238 234 238 248 254 254 262 279 297 310 317 320 323 324